This is the latest recevied weather packets stored in our database for station/object 9W2CHF-4. If no packets are shown the sender has not sent any weather packets the latest 10 day(s).
| Time | Temp. | Humidity | Pressure | Rain* | Wind** | Luminosity | Snow |
|---|---|---|---|---|---|---|---|
| 1777985613 | 32.22° C | 83% | 1009.3 hPa | - | - | - | - |
| 1777984713 | 32.78° C | 79% | 1009.2 hPa | - | - | - | - |
| 1777983812 | 32.78° C | 77% | 1009 hPa | - | - | - | - |
| 1777982912 | 32.22° C | 76% | 1008.8 hPa | - | - | - | - |
| 1777981112 | 32.22° C | 72% | 1008.2 hPa | - | - | - | - |
| 1777980212 | 32.22° C | 67% | 1008.3 hPa | - | - | - | - |
| 1777979312 | 32.78° C | 63% | 1008.3 hPa | - | - | - | - |
| 1777978412 | 32.22° C | 67% | 1008.1 hPa | - | - | - | - |
| 1777977512 | 32.78° C | 66% | 1008 hPa | - | - | - | - |
| 1777976612 | 32.78° C | 65% | 1007.7 hPa | - | - | - | - |
| 1777975712 | 33.33° C | 64% | 1007.6 hPa | - | - | - | - |
| 1777974812 | 32.78° C | 66% | 1007.5 hPa | - | - | - | - |
| 1777973912 | 32.78° C | 67% | 1007.1 hPa | - | - | - | - |
| 1777973012 | 32.78° C | 67% | 1006.9 hPa | - | - | - | - |
| 1777972111 | 33.33° C | 70% | 1007 hPa | - | - | - | - |
| 1777971219 | 33.33° C | 77% | 1007 hPa | - | - | - | - |
| 1777970318 | 33.33° C | 79% | 1007 hPa | - | - | - | - |
| 1777969418 | 33.89° C | 74% | 1007.1 hPa | - | - | - | - |
| 1777968518 | 33.89° C | 75% | 1007.1 hPa | - | - | - | - |
| 1777967618 | 33.89° C | 74% | 1006.9 hPa | - | - | - | - |
| 1777966718 | 33.89° C | 76% | 1007.1 hPa | - | - | - | - |
| 1777965818 | 33.33° C | 78% | 1007.3 hPa | - | - | - | - |
| 1777964917 | 33.33° C | 79% | 1007.6 hPa | - | - | - | - |
| 1777964016 | 33.33° C | 81% | 1007.8 hPa | - | - | - | - |
| 1777963116 | 33.33° C | 83% | 1008.1 hPa | - | - | - | - |
* Rain since midnight (hover to see other rain measurements)
** Current wind speed in m/s (hover to see current wind gust speed)